Weather History for KGPT - September, 2013

Change the Weather History Date:

Saturday, September 21, 2013

  Actual Average Record
Temperature  
Mean Temperature 78 °F -  
Max Temperature 82 °F 87 °F 97 °F (2005)
Min Temperature 73 °F 68 °F 56 °F (1981)
Cooling Degree Days 12    
Growing Degree Days 28 (Base 50)    
Moisture  
Dew Point 74 °F    
Average Humidity 85    
Maximum Humidity 94    
Minimum Humidity 77    
Precipitation  
Precipitation 0.65 in - - ()
Sea Level Pressure  
Sea Level Pressure 29.78 in    
Wind  
Wind Speed 6 mph (SSW)    
Max Wind Speed 13 mph    
Max Gust Speed 21 mph    
Visibility 8 miles    
Events Rain    
Averages and records for this station are not official NWS values.
T = Trace of Precipitation, MM = Missing Value Source: NWS Daily Summary

Daily Weather History Graph

Daily Weather History Graph

Search for Another Location

Airport or City:

Trip Planner

Search our weather history database for the weather conditions in past years. The results will help you decide how hot, cold, wet, or windy it might be!

Date:

Astronomy

Sep. 21, 2013 Rise Set
Actual Time 6:44 AM CDT 6:53 PM CDT
Civil Twilight 6:20 AM CDT 7:17 PM CDT
Nautical Twilight 5:52 AM CDT 7:45 PM CDT
Astronomical Twilight 5:23 AM CDT 8:13 PM CDT
Moon 8:18 PM CDT (9/21) 8:50 AM CDT (9/21)
Length of Visible Light 12h 57m
Length of Day
12h 09m
Waning Gibbous, 94% of the Moon is Illuminated
Sep 21
Waning Gibbous
Sep 26
Last Quarter
Oct 4
New
Oct 11
First Quarter
Oct 18
Full

Hourly Weather History & Observations

Time (CDT) Temp. Heat Index Dew Point Humidity Pressure Visibility Wind Dir Wind Speed Gust Speed Precip Events Conditions
12:53 AM 82.9 °F 90.2 °F 75.0 °F 77% 29.82 in 10.0 mi South 8.1 mph - N/A   Scattered Clouds
1:53 AM 82.9 °F 90.2 °F 75.0 °F 77% 29.81 in 10.0 mi South 8.1 mph - N/A   Partly Cloudy
2:20 AM 82.4 °F 89.5 °F 75.2 °F 79% 29.80 in 10.0 mi South 8.1 mph - N/A   Mostly Cloudy
2:45 AM 82.4 °F 89.5 °F 75.2 °F 79% 29.79 in 10.0 mi South 8.1 mph - N/A   Mostly Cloudy
2:53 AM 82.9 °F 90.2 °F 75.0 °F 77% 29.79 in 10.0 mi South 12.7 mph 17.3 mph 0.00 in Rain Light Rain
3:53 AM 82.9 °F 90.2 °F 75.0 °F 77% 29.78 in 10.0 mi South 8.1 mph - 0.00 in   Clear
4:53 AM 82.9 °F 90.2 °F 75.0 °F 77% 29.78 in 10.0 mi South 9.2 mph - N/A   Mostly Cloudy
5:01 AM 82.4 °F 89.5 °F 75.2 °F 79% 29.78 in 10.0 mi South 8.1 mph 16.1 mph N/A   Scattered Clouds
5:53 AM 82.9 °F 90.2 °F 75.0 °F 77% 29.78 in 10.0 mi South 5.8 mph - 0.00 in Rain Light Rain
6:53 AM 82.0 °F 89.4 °F 75.9 °F 82% 29.79 in 10.0 mi SSW 4.6 mph - 0.01 in   Partly Cloudy
7:53 AM 81.0 °F 87.3 °F 75.9 °F 85% 29.80 in 9.0 mi SSW 3.5 mph - 0.02 in Rain Light Rain
8:38 AM 80.6 °F 87.1 °F 77.0 °F 89% 29.80 in 2.0 mi WSW 3.5 mph - 0.07 in Rain Rain
8:53 AM 79.0 °F - 75.0 °F 88% 29.81 in 2.5 mi Variable 5.8 mph - 0.18 in Rain Rain
9:00 AM 78.8 °F - 75.2 °F 89% 29.81 in 4.0 mi West 6.9 mph - 0.01 in Rain Light Rain
9:12 AM 77.0 °F - 73.4 °F 89% 29.82 in 1.2 mi West 5.8 mph 20.7 mph 0.10 in Rain Rain
9:18 AM 77.0 °F - 73.4 °F 89% 29.83 in 3.0 mi WSW 6.9 mph - 0.11 in Rain Light Rain
9:53 AM 75.9 °F - 73.0 °F 91% 29.82 in 3.0 mi SW 6.9 mph - 0.17 in Rain Light Rain
10:53 AM 75.9 °F - 73.0 °F 91% 29.81 in 3.0 mi SW 4.6 mph - 0.17 in Rain Rain
11:53 AM 77.0 °F - 75.0 °F 94% 29.80 in 9.0 mi Variable 4.6 mph - 0.05 in Rain Light Rain
12:53 PM 78.1 °F - 75.0 °F 90% 29.78 in 10.0 mi SW 4.6 mph - 0.01 in Rain Light Rain
1:53 PM 79.0 °F - 75.0 °F 88% 29.77 in 10.0 mi WSW 5.8 mph - 0.01 in Rain Light Rain
2:53 PM 78.1 °F - 73.9 °F 87% 29.76 in 10.0 mi Calm Calm - 0.00 in Rain Light Rain
3:53 PM 78.1 °F - 75.0 °F 90% 29.74 in 10.0 mi Calm Calm - 0.02 in Rain Light Rain
3:56 PM 78.8 °F - 75.2 °F 89% 29.74 in 9.0 mi Calm Calm - 0.00 in Rain Light Rain
4:53 PM 78.1 °F - 73.9 °F 87% 29.72 in 10.0 mi Calm Calm - 0.00 in   Overcast
5:53 PM 78.1 °F - 73.9 °F 87% 29.73 in 10.0 mi Calm Calm - 0.01 in   Overcast
6:53 PM 78.1 °F - 73.9 °F 87% 29.74 in 10.0 mi Calm Calm - N/A   Mostly Cloudy
6:54 PM 78.8 °F - 73.4 °F 83% 29.74 in 10.0 mi Calm Calm - N/A   Mostly Cloudy
7:53 PM 77.0 °F - 73.0 °F 88% 29.74 in 10.0 mi Calm Calm - N/A   Mostly Cloudy
8:53 PM 75.0 °F - 72.0 °F 90% 29.76 in 10.0 mi North 6.9 mph - N/A   Scattered Clouds
9:53 PM 73.9 °F - 71.1 °F 91% 29.77 in 10.0 mi NNE 8.1 mph - 0.00 in   Overcast
10:53 PM 73.0 °F - 70.0 °F 90% 29.77 in 10.0 mi NNE 11.5 mph - N/A   Overcast
11:53 PM 73.0 °F - 69.1 °F 87% 29.78 in 10.0 mi NE 6.9 mph - N/A   Overcast